Date String (YYYY-MM-DD hh:mm:ss) UTC,Instrument flags,absolute air pressure of the measurement (hPa),sample flow rate (lpm),inlet stack bypass flow (lpm),air temperature of the measurement (°C),ambient temperature measured by the external sensor (°C),aerosol sample conditioner tube jacket temperature (°C),OPC LED temperature (°C),internal box temperature (°C),relative humidity of the measurement (%),span deviation,mass concentration of particles derived from Lorenz-Mie calculation of OPC scattering (μg/m³),mass concentration of particles derived from Lorenz-Mie calculation of OPC scattering (μg/m³),mass concentration of particles derived from Lorenz-Mie calculation of OPC scattering (μg/m³)
DateTimeUTC,F1_M11,P_M11,Q1_M11,Q2_M11,T1_M11,T2_M11,T3_M11,T4_M11,T5_M11,U1_M11,ZSPAN_M11,X0_M11,X2_M11,X1_M11
2023-08-03 05:00:00,SystemResetWarning,0835.3,4.98,000.00,033.2,027.0,000.0,040.6,032.1,34.5,0000.0,0009.39,0004.72,0003.99
2023-08-03 05:01:00,SystemResetWarning,0835.3,5.00,000.00,033.3,027.3,000.0,040.6,032.1,34.4,0000.0,0009.16,0004.59,0003.91
2023-08-03 05:02:00,SystemResetWarning,0835.2,5.02,000.00,033.3,027.6,000.0,040.6,032.1,34.2,0000.0,0008.86,0004.51,0003.85
2023-08-03 05:03:00,SystemResetWarning,0835.2,5.00,000.00,033.3,027.9,000.0,040.7,032.2,34.2,0000.0,0008.43,0004.41,0003.78
2023-08-03 05:04:00,SystemResetWarning,0835.2,5.00,000.00,033.3,028.1,000.0,040.7,032.2,34.2,0000.0,0008.13,0004.32,0003.71
2023-08-03 05:05:00,SystemResetWarning,0835.2,5.00,000.00,033.3,028.3,000.0,040.8,032.2,34.3,0000.0,0007.84,0004.18,0003.63
2023-08-03 05:06:00,SystemResetWarning,0835.3,5.00,000.00,033.2,028.4,000.0,040.8,032.3,34.5,0000.0,0007.55,0004.06,0003.56
2023-08-03 05:07:00,SystemResetWarning,0835.3,4.98,000.00,033.2,027.6,000.0,040.8,032.2,34.4,0000.0,0007.14,0004.00,0003.52
2023-08-03 05:08:00,SystemResetWarning,0835.2,5.00,000.00,033.2,025.8,000.0,040.6,032.0,34.5,0000.0,0006.69,0003.96,0003.49
2023-08-03 05:09:00,SystemResetWarning,0835.2,5.00,000.00,033.1,025.0,000.0,040.5,031.8,34.5,0000.0,0006.52,0003.91,0003.46
2023-08-03 05:10:00,SystemResetWarning,0835.1,5.00,000.00,032.8,025.0,000.0,040.5,031.4,34.8,0000.0,0006.65,0003.92,0003.44
2023-08-03 05:11:00,SystemResetWarning,0835.2,5.00,000.00,032.6,025.4,000.0,040.5,031.4,35.4,0000.0,0006.69,0003.91,0003.43
2023-08-03 05:12:00,SystemResetWarning,0835.2,5.02,000.00,032.7,025.9,000.0,040.5,031.6,35.3,0000.0,0006.51,0003.93,0003.43
2023-08-03 05:13:00,SystemResetWarning,0835.2,5.00,000.00,032.9,026.4,000.0,040.5,031.8,35.0,0000.0,0006.49,0003.91,0003.42
2023-08-03 05:14:00,SystemResetWarning,0835.2,4.98,000.00,033.1,026.8,000.0,040.5,032.0,34.7,0000.0,0006.46,0003.92,0003.44
2023-08-03 05:15:00,SystemResetWarning,0835.2,4.99,000.00,033.2,027.2,000.0,040.5,032.0,34.5,0000.0,0006.67,0003.98,0003.46
2023-08-03 05:16:00,SystemResetWarning,0835.3,5.01,000.00,033.2,027.5,000.0,040.5,032.0,34.4,0000.0,0006.88,0004.04,0003.50
2023-08-03 05:17:00,SystemResetWarning,0835.3,5.01,000.00,033.2,027.7,000.0,040.6,032.0,34.2,0000.0,0007.25,0004.10,0003.54
2023-08-03 05:18:00,SystemResetWarning,0835.3,5.00,000.00,033.2,027.9,000.0,040.6,032.1,33.8,0000.0,0007.40,0004.15,0003.58
2023-08-03 05:19:00,SystemResetWarning,0835.3,5.00,000.00,033.2,028.1,000.0,040.7,032.1,33.6,0000.0,0007.52,0004.19,0003.59
2023-08-03 05:20:00,SystemResetWarning,0835.3,5.00,000.00,033.1,028.3,000.0,040.7,032.1,33.5,0000.0,0007.73,0004.28,0003.63
2023-08-03 05:21:00,SystemResetWarning,0835.3,5.00,000.00,033.1,028.4,000.0,040.8,032.2,33.5,0000.0,0007.76,0004.31,0003.65
2023-08-03 05:22:00,SystemResetWarning,0835.2,4.99,000.00,033.1,028.3,000.0,040.8,032.2,33.7,0000.0,0007.73,0004.31,0003.66
2023-08-03 05:23:00,SystemResetWarning,0835.2,4.99,000.00,033.1,026.7,000.0,040.6,032.1,33.8,0000.0,0007.86,0004.36,0003.68
2023-08-03 05:24:00,SystemResetWarning,0835.1,5.01,000.00,033.0,025.8,000.0,040.5,031.9,34.1,0000.0,0008.02,0004.39,0003.71
2023-08-03 05:25:00,SystemResetWarning,0835.0,5.01,000.00,032.8,025.7,000.0,040.5,031.6,34.4,0000.0,0008.10,0004.42,0003.74
2023-08-03 05:26:00,SystemResetWarning,0835.0,5.00,000.00,032.6,026.1,000.0,040.5,031.5,34.5,0000.0,0008.14,0004.44,0003.75
2023-08-03 05:27:00,SystemResetWarning,0835.0,4.99,000.00,032.4,026.5,000.0,040.5,031.6,34.8,0000.0,0008.14,0004.46,0003.76
2023-08-03 05:28:00,SystemResetWarning,0834.9,5.00,000.00,032.4,026.8,000.0,040.5,031.7,34.9,0000.0,0008.18,0004.52,0003.78
2023-08-03 05:29:00,SystemResetWarning,0834.9,5.01,000.00,032.3,027.2,000.0,040.4,031.8,34.8,0000.0,0008.26,0004.55,0003.78
2023-08-03 05:30:00,SystemResetWarning,0835.0,5.00,000.00,032.2,027.5,000.0,040.4,031.8,34.8,0000.0,0008.23,0004.55,0003.81
2023-08-03 05:31:00,SystemResetWarning,0835.3,4.99,000.00,032.2,027.7,000.0,040.4,031.9,34.8,0000.0,0008.14,0004.52,0003.82
2023-08-03 05:32:00,SystemResetWarning,0835.1,4.98,000.00,032.1,027.9,000.0,040.3,031.9,35.0,0000.0,0008.10,0004.50,0003.83
2023-08-03 05:33:00,SystemResetWarning,0835.3,5.03,000.00,032.2,028.1,000.0,040.3,032.0,35.3,0000.0,0008.07,0004.48,0003.83
2023-08-03 05:34:00,SystemResetWarning,0835.3,5.00,000.00,032.4,028.3,000.0,040.3,032.1,35.1,0000.0,0008.04,0004.44,0003.82
2023-08-03 05:35:00,SystemResetWarning,0834.9,4.99,000.00,032.6,028.4,000.0,040.3,032.3,34.7,0000.0,0007.96,0004.44,0003.81
2023-08-03 05:36:00,SystemResetWarning,0835.0,4.99,000.00,032.8,028.1,000.0,040.2,032.3,34.6,0000.0,0007.95,0004.45,0003.81
2023-08-03 05:37:00,SystemResetWarning,0834.9,5.01,000.00,032.9,026.6,000.0,040.1,032.1,34.5,0000.0,0007.93,0004.44,0003.79
2023-08-03 05:38:00,SystemResetWarning,0834.9,5.00,000.00,032.8,025.8,000.0,040.1,031.9,34.5,0000.0,0007.96,0004.45,0003.78
2023-08-03 05:39:00,SystemResetWarning,0835.0,5.01,000.00,032.7,025.8,000.0,040.1,031.6,34.8,0000.0,0007.83,0004.40,0003.76
2023-08-03 05:40:00,SystemResetWarning,0834.8,4.99,000.00,032.5,026.2,000.0,040.2,031.6,35.3,0000.0,0007.65,0004.33,0003.73
2023-08-03 05:41:00,SystemResetWarning,0835.0,5.01,000.00,032.6,026.6,000.0,040.2,031.7,35.2,0000.0,0007.59,0004.31,0003.70
2023-08-03 05:42:00,SystemResetWarning,0835.0,5.00,000.00,032.9,026.9,000.0,040.3,031.9,34.8,0000.0,0007.65,0004.32,0003.68
2023-08-03 05:43:00,SystemResetWarning,0835.1,4.97,000.00,033.0,027.3,000.0,040.3,032.0,34.5,0000.0,0007.61,0004.30,0003.65
2023-08-03 05:44:00,SystemResetWarning,0835.0,5.02,000.00,033.1,027.5,000.0,040.3,032.1,34.5,0000.0,0007.63,0004.30,0003.64
2023-08-03 05:45:00,SystemResetWarning,0835.0,5.00,000.00,033.1,027.8,000.0,040.4,032.1,34.6,0000.0,0007.67,0004.31,0003.64
2023-08-03 05:46:00,SystemResetWarning,0834.9,4.99,000.00,033.1,028.0,000.0,040.5,032.1,34.6,0000.0,0007.64,0004.29,0003.63
2023-08-03 05:47:00,SystemResetWarning,0834.9,4.99,000.00,033.1,028.2,000.0,040.5,032.1,34.6,0000.0,0007.56,0004.27,0003.62
2023-08-03 05:48:00,SystemResetWarning,0835.0,5.00,000.00,033.1,028.3,000.0,040.6,032.1,34.7,0000.0,0007.41,0004.22,0003.62
2023-08-03 05:49:00,SystemResetWarning,0835.4,5.00,000.00,033.0,028.4,000.0,040.6,032.2,34.8,0000.0,0007.29,0004.18,0003.62
2023-08-03 05:50:00,SystemResetWarning,0835.3,5.00,000.00,033.1,027.0,000.0,040.5,032.1,34.7,0000.0,0007.62,0004.18,0003.62
2023-08-03 05:51:00,SystemResetWarning,0834.8,5.01,000.00,033.0,025.4,000.0,040.4,031.9,34.9,0000.0,0007.78,0004.22,0003.64
2023-08-03 05:52:00,SystemResetWarning,0835.0,5.00,000.00,032.9,024.9,000.0,040.3,031.7,35.2,0000.0,0007.97,0004.27,0003.65
2023-08-03 05:53:00,SystemResetWarning,0835.0,5.01,000.00,032.8,025.1,000.0,040.3,031.5,35.4,0000.0,0008.04,0004.28,0003.65
2023-08-03 05:54:00,SystemResetWarning,0835.1,4.99,000.00,032.9,025.5,000.0,040.4,031.6,35.3,0000.0,0008.13,0004.31,0003.66
2023-08-03 05:55:00,SystemResetWarning,0835.0,5.01,000.00,033.1,026.0,000.0,040.4,031.8,34.8,0000.0,0008.09,0004.29,0003.66
2023-08-03 05:56:00,SystemResetWarning,0835.2,4.98,000.00,033.3,026.5,000.0,040.4,031.9,34.5,0000.0,0008.03,0004.29,0003.66
2023-08-03 05:57:00,SystemResetWarning,0835.2,5.00,000.00,033.3,026.9,000.0,040.5,031.9,34.4,0000.0,0008.15,0004.28,0003.68
2023-08-03 05:58:00,SystemResetWarning,0835.1,5.01,000.00,033.3,027.2,000.0,040.5,032.0,34.3,0000.0,0008.30,0004.33,0003.69
2023-08-03 05:59:00,SystemResetWarning,0835.1,5.00,000.00,033.3,027.5,000.0,040.6,032.0,34.3,0000.0,0008.69,0004.39,0003.71
